Flag for Romania Weather past 2 weeks in Iasi, Romania

Now
64 °F

Fog.


Feels Like: 64 °F
Forecast: 65 / 82 °F
Wind: 2 mph from North

Location: Iasi Airport

Current Time: Jul 24, 2014 at 1:49:10 AM

Latest Report: Jul 24, 2014 at 1:00 AM


Visibility: 3 mi

Pressure: 29.83 "Hg

Humidity: 100%

Dew point: 64 °F

Location of IasiLocation

Historic Weather in Iasi — Graph

°F

Iasi temperature yesterday

Maximum temperature yesterday: 79 °F (at 12:00 PM)
Minimum temperature yesterday: 64 °F (at 2:00 AM)
Average temperature yesterday: 69 °F

Past Weeks' High & Low Weather Summary

 TemperatureHumidityPressure
High88 °F (Jul 21, 2:30 PM)100% (Jul 10, 5:00 AM)30.04 "Hg (Jul 10, 5:00 AM)
Low55 °F (Jul 14, 6:00 AM)35% (Jul 14, 2:00 PM)29.56 "Hg (Jul 11, 2:00 PM)
Average72 °F76%29.86 "Hg
* Reported Jul 9 1:00 AM — Jul 24 1:00 AM, Iasi, Weather by CustomWeather, © 2014

Note: Actual official high and low records may vary slightly from our data, if they occured in-between our weather recording intervals... More about our weather records

Advertising

Iasi weather history for previous 24 hours

 ConditionsComfort  
Time TempWeatherWind HumidityBarometerVisibility
1:00 AM
Jul 24
64 °FFog.2 mph100%29.83 "Hg3 mi
12:00 AM64 °FFog.2 mph100%29.83 "Hg3 mi
11:00 PM
Jul 23
66 °FClear.2 mph100%29.83 "Hg4 mi
10:00 PM66 °FPassing clouds.5 mph100%29.83 "HgN/A
9:00 PM66 °FSunny.7 mph100%29.83 "Hg10 mi
8:30 PM66 °FSunny.7 mph100%29.83 "Hg10 mi
8:00 PM68 °FSunny.12 mph94%29.80 "Hg10 mi
7:30 PM68 °FSunny.5 mph94%29.80 "Hg10 mi
7:00 PM68 °FPassing clouds.7 mph94%29.80 "HgN/A
6:30 PM66 °FLight rain. Scattered clouds.7 mph94%29.83 "HgN/A
6:00 PM66 °FLight rain. Scattered clouds.9 mph94%29.83 "HgN/A
5:30 PM66 °FThunderstorms. Broken clouds.9 mph94%29.83 "HgN/A
5:00 PM64 °FThunderstorms. Partly sunny.2 mph100%29.83 "HgN/A
4:30 PM64 °FThunderstorms. Partly sunny.7 mph100%29.80 "HgN/A
4:00 PM64 °FStrong thunderstorms. Cloudy.12 mph100%29.83 "Hg1 mi
3:00 PM75 °FThunderstorms. Partly sunny.5 mph78%29.77 "Hg5 mi
2:30 PM79 °FThunderstorms. Scattered clouds.7 mph65%29.77 "HgN/A
2:00 PM79 °FThunderstorms. Scattered clouds.12 mph65%29.80 "HgN/A
1:00 PM77 °FScattered clouds.9 mph69%29.83 "HgN/A
12:30 PM77 °FScattered clouds.9 mph74%29.83 "HgN/A
12:00 PM79 °FPassing clouds.9 mph65%29.83 "HgN/A
11:30 AM77 °FPassing clouds.9 mph69%29.83 "HgN/A
11:00 AM75 °FPassing clouds.9 mph74%29.83 "HgN/A
9:00 AM70 °FPassing clouds.5 mph83%29.83 "HgN/A
8:30 AM68 °FPassing clouds.7 mph88%29.83 "HgN/A
8:00 AM66 °FSunny.9 mph94%29.83 "Hg10 mi
7:30 AM66 °FScattered clouds.9 mph94%29.83 "HgN/A
7:00 AM64 °FSunny.12 mph100%29.83 "Hg10 mi
6:30 AM64 °FPassing clouds.12 mph94%29.83 "HgN/A
6:00 AM64 °FPassing clouds.12 mph94%29.83 "HgN/A
5:30 AM64 °FPassing clouds.12 mph94%29.86 "HgN/A
5:00 AM64 °FSprinkles. Passing clouds.12 mph94%29.86 "HgN/A
3:00 AM64 °FSprinkles. Low clouds.12 mph100%29.86 "HgN/A
2:00 AM64 °FThunderstorms. Passing clouds.12 mph94%29.86 "HgN/A
Weather by CustomWeather, © 2014

See weather overviewHow to use our weather pages